This is the latest recevied weather packets stored in our database for station/object OK1JIL-13. If no packets are shown the sender has not sent any weather packets the latest 10 day(s).
| Time | Temp. | Humidity | Pressure | Rain* | Wind** | Luminosity | Snow |
|---|---|---|---|---|---|---|---|
| 1777549995 | 10.56° C | 32% | 1029.7 hPa | - | - | - | - |
| 1777549395 | 10.56° C | 29% | 1029.5 hPa | - | - | - | - |
| 1777548795 | 10° C | 28% | 1029.7 hPa | - | - | - | - |
| 1777548197 | 10.56° C | 29% | 1029.9 hPa | - | - | - | - |
| 1777547595 | 11.67° C | 27% | 1029.8 hPa | - | - | - | - |
| 1777546995 | 10° C | 29% | 1029.8 hPa | - | - | - | - |
| 1777546395 | 11.11° C | 29% | 1029.9 hPa | - | - | - | - |
| 1777545795 | 10.56° C | 27% | 1030.1 hPa | - | - | - | - |
| 1777545195 | 9.44° C | 28% | 1030.1 hPa | - | - | - | - |
| 1777544599 | 10.56° C | 26% | 1030.1 hPa | - | - | - | - |
| 1777543995 | 9.44° C | 26% | 1030.3 hPa | - | - | - | - |
| 1777543395 | 11.11° C | 23% | 1030.3 hPa | - | - | - | - |
| 1777542798 | 10° C | 23% | 1030.3 hPa | - | - | - | - |
| 1777542195 | 10° C | 26% | 1030.4 hPa | - | - | - | - |
| 1777541597 | 8.33° C | 25% | 1030.3 hPa | - | - | - | - |
| 1777540995 | 8.33° C | 23% | 1030.4 hPa | - | - | - | - |
| 1777540395 | 10° C | 25% | 1030.4 hPa | - | - | - | - |
| 1777539795 | 7.78° C | 25% | 1030.5 hPa | - | - | - | - |
| 1777539195 | 8.89° C | 26% | 1030.5 hPa | - | - | - | - |
| 1777538598 | 8.89° C | 24% | 1030.5 hPa | - | - | - | - |
| 1777537994 | 8.89° C | 26% | 1030.5 hPa | - | - | - | - |
| 1777537400 | 8.89° C | 26% | 1030.5 hPa | - | - | - | - |
| 1777536193 | 7.78° C | 29% | 1030.4 hPa | - | - | - | - |
| 1777534993 | 6.67° C | 30% | 1030.4 hPa | - | - | - | - |
| 1777534394 | 6.67° C | 31% | 1030.4 hPa | - | - | - | - |
* Rain since midnight (hover to see other rain measurements)
** Current wind speed in m/s (hover to see current wind gust speed)